KLM341 LEPA-EHAM

Flight info

Callsign KLM341
Flight time N/A
Altitude 36000
Route GALAT DCT RODRA DCT VNV DCT ANTON DCT BISES DCT SADUR DCT CAVES DCT LATRO DCT OLOXO DCT OKABI DCT TOU DCT ADABI DCT BOKNO UN858 VANAD UN874 BAMES UT191 PODEM DCT BAZOS DCT LUMIL DCT BELOB UY873 DENUT
Aircraft A21N/M-SDE2E3FGHIRWXY/LB1

Departure

Time 2026-05-01 11:12
Airport Palma de Mallorca Airport (LEPA)

Arrival

Time N/A
Airport Amsterdam Airport Schiphol (EHAM)
Time Latitude Longitude Altitude Speed Heading
2026-05-01 10:56 39.55091 2.73629 37 ft 0 kts 188°
2026-05-01 11:04 39.55087 2.73629 36 ft 1 kts 188°
2026-05-01 11:04 39.55094 2.73630 36 ft 2 kts 188°
2026-05-01 11:04 39.55111 2.73633 36 ft 2 kts 174°
2026-05-01 11:05 39.55125 2.73624 35 ft 0 kts 116°
2026-05-01 11:05 39.55124 2.73628 35 ft 1 kts 116°
2026-05-01 11:05 39.55110 2.73678 36 ft 7 kts 110°
2026-05-01 11:05 39.55091 2.73741 35 ft 8 kts 112°
2026-05-01 11:06 39.55067 2.73803 36 ft 8 kts 118°
2026-05-01 11:06 39.55032 2.73854 36 ft 7 kts 147°
2026-05-01 11:06 39.54987 2.73888 35 ft 8 kts 150°
2026-05-01 11:07 39.54885 2.73964 36 ft 9 kts 150°
2026-05-01 11:07 39.54831 2.73988 36 ft 6 kts 191°
2026-05-01 11:07 39.54802 2.73968 36 ft 6 kts 219°
2026-05-01 11:07 39.54753 2.73934 37 ft 8 kts 181°
2026-05-01 11:08 39.54698 2.73918 35 ft 8 kts 216°
2026-05-01 11:08 39.54665 2.73860 37 ft 10 kts 240°
2026-05-01 11:08 39.54563 2.73642 38 ft 16 kts 237°
2026-05-01 11:09 39.54505 2.73524 39 ft 15 kts 237°
2026-05-01 11:09 39.54449 2.73409 39 ft 15 kts 239°
2026-05-01 11:09 39.54395 2.73292 41 ft 15 kts 239°
2026-05-01 11:10 39.54296 2.73212 41 ft 5 kts 130°
2026-05-01 11:10 39.54281 2.73273 41 ft 13 kts 97°
2026-05-01 11:10 39.54273 2.73405 40 ft 15 kts 93°
2026-05-01 11:10 39.54295 2.73537 38 ft 15 kts 58°
2026-05-01 11:11 39.54352 2.73655 37 ft 16 kts 58°
2026-05-01 11:11 39.54487 2.73941 37 ft 73 kts 59°
2026-05-01 11:11 39.54896 2.74807 33 ft 152 kts 59°
2026-05-01 11:11 39.55512 2.76076 519 ft 174 kts 58°
2026-05-01 11:12 39.56253 2.77611 620 ft 229 kts 59°
2026-05-01 11:12 39.57150 2.79514 1033 ft 257 kts 59°
2026-05-01 11:12 39.58085 2.81488 2103 ft 253 kts 59°
2026-05-01 11:12 39.58980 2.83376 3383 ft 240 kts 60°
2026-05-01 11:13 39.59840 2.85188 4513 ft 233 kts 60°
2026-05-01 11:13 39.60671 2.86935 5529 ft 229 kts 60°
2026-05-01 11:13 39.61521 2.88730 6445 ft 233 kts 60°
2026-05-01 11:13 39.62421 2.90474 7234 ft 241 kts 50°
2026-05-01 11:14 39.63851 2.91670 7978 ft 255 kts 14°
2026-05-01 11:14 39.65636 2.91598 8715 ft 266 kts 340°
2026-05-01 11:14 39.67188 2.90207 9231 ft 282 kts 305°
2026-05-01 11:14 39.67911 2.87866 10018 ft 282 kts 273°
2026-05-01 11:15 39.67899 2.85300 10699 ft 292 kts 268°
2026-05-01 11:15 39.68105 2.82578 11061 ft 315 kts 276°
2026-05-01 11:15 39.68371 2.79658 11383 ft 337 kts 274°
2026-05-01 11:15 39.68516 2.76527 11693 ft 357 kts 270°
2026-05-01 11:16 39.68632 2.74363 11994 ft 367 kts 278°
2026-05-01 11:16 39.69493 2.71200 12558 ft 378 kts 299°
2026-05-01 11:16 39.70811 2.68217 13316 ft 383 kts 295°
2026-05-01 11:16 39.71937 2.65063 14024 ft 387 kts 294°
2026-05-01 11:17 39.73035 2.61847 14636 ft 391 kts 293°
2026-05-01 11:17 39.74131 2.58589 15296 ft 394 kts 293°
2026-05-01 11:17 39.75227 2.55312 15996 ft 396 kts 293°
2026-05-01 11:17 39.76332 2.52003 16591 ft 401 kts 293°
2026-05-01 11:18 39.77429 2.48708 17178 ft 404 kts 293°
2026-05-01 11:18 39.78545 2.45357 17930 ft 404 kts 292°
2026-05-01 11:18 39.79666 2.41982 18478 ft 409 kts 293°
2026-05-01 11:18 39.80801 2.38566 18949 ft 412 kts 292°
2026-05-01 11:19 39.81963 2.35141 19549 ft 413 kts 295°
2026-05-01 11:19 39.83483 2.31942 19921 ft 421 kts 309°
2026-05-01 11:19 39.85534 2.29213 20458 ft 422 kts 316°
2026-05-01 11:19 39.87722 2.26637 20979 ft 426 kts 317°
2026-05-01 11:20 39.88745 2.25452 21152 ft 428 kts 316°
2026-05-01 11:20 39.89810 2.24219 21392 ft 429 kts 316°
2026-05-01 11:20 39.92045 2.21623 21865 ft 432 kts 317°
2026-05-01 11:20 39.93324 2.20133 22079 ft 434 kts 316°
2026-05-01 11:21 39.94876 2.18320 22428 ft 435 kts 316°
2026-05-01 11:21 39.97131 2.15679 22867 ft 438 kts 317°
2026-05-01 11:21 39.99419 2.12993 23232 ft 442 kts 317°
2026-05-01 11:22 40.01683 2.10334 23667 ft 445 kts 316°
2026-05-01 11:22 40.02980 2.08808 23913 ft 445 kts 316°
2026-05-01 11:22 40.05256 2.06126 24294 ft 447 kts 316°
2026-05-01 11:23 40.07570 2.03397 24452 ft 446 kts 316°
2026-05-01 11:23 40.09847 2.00711 23976 ft 437 kts 316°